Location: Maccacari
(45.1333°N, 11.1333°E)
Time: 07:08:00
(UTC+00:00)

COSMOS 2406 - Pass Details

Date: 18 September 2020
Orbit: 844 x 863 km, 71.0° (Epoch: 29 October)

Event Time Altitude Azimuth Distance (km) Brightness Sun altitude
Rises 20:48:07 0° 332° (NNW) 3,413 7.3 -33.9°
Reaches altitude 10° 20:50:34 10° 331° (NNW) 2,474 6.4 -34.2°
Enters shadow 20:54:19 43° 321° (NW) 1,178 4.2 -34.7°
